Current weather by "City, St" or "zip code"  
 

Current Conditions: Burlington/Mount Vernon, Skagit Regional Airport, WA

Overcast


63.0 F

Last Updated on Oct 29 2020, 1:55 pm PDT
Humidity: 64%
Wind Speed: SE 9.2 mph
Barometer 30.14 in
Dewpoint: 50.0 F
Visibility: 10.00 mi
Precip: --
Heat Index: NA
Wind Chill: 62 F
Current conditions at:

Burlington/Mount Vernon, Skagit Regional Airport, WA (KBVS)

Lat: 48.47083 Lon: 122.42083

Local Radar Image active severe weather and emergency alerts image image weather storm and storm spotter reports image weather observation monitoring service image
Local
Radar
Active
Alerts
Storm Reports Obs
Monitoring

Sign-up For Email & Text Message Weather Alert Notification Services



Advertise Here

Observation History for Burlington/Mount Vernon, Skagit Regional Airport, WA


Time Wind
(mph)
Vis
(mi)
Weather Precip (in) Temperature (F) Relative
Humidity
Wind
Chill
(F)
Heat
Index
(F)
Pressure
Air Dwpt altimeter
(in)
sea level
(mb)
Rmks
1:55 pm PDT SE 9.2 10.00 Overcast -- 63.0 50.0 64% 62 NA 30.14 M
12:55 pm PDT S 5.8 10.00 Partly Cloudy -- 61.0 51.8 72% 61 NA 30.17 M
11:55 am PDT S 6.9 10.00 A Few Clouds -- 57.0 53.6 88% 56 NA 30.18 M
10:55 am PDT S 6.9 10.00 Overcast -- 57.0 51.8 82% 56 NA 30.20 M
9:55 am PDT N 0.0 10.00 Overcast -- 54.0 51.8 94% NA NA 30.20 M
8:55 am PDT SE 6.9 10.00 Overcast -- 54.0 51.8 94% 52 NA 30.19 M
7:55 am PDT SE 6.9 10.00 Overcast -- 54.0 51.8 94% 52 NA 30.19 M
7:35 am PDT SE 3.5 10.00 Overcast -- 54.0 51.8 94% NA NA 30.19 M
6:55 am PDT SE 4.6 10.00 Overcast -- 54.0 51.8 94% 53 NA 30.19 M
5:55 am PDT SE 4.6 10.00 Overcast -- 54.0 51.8 94% 53 NA 30.19 M
4:55 am PDT N 0.0 10.00 Overcast -- 52.0 51.8 100% NA NA 30.18 M
3:55 am PDT N 0.0 10.00 Overcast -- 52.0 50.0 94% NA NA 30.19 M
2:55 am PDT SE 4.6 10.00 Overcast -- 52.0 50.0 94% 51 NA 30.18 M
1:55 am PDT N 0.0 10.00 Overcast -- 52.0 50.0 94% NA NA 30.19 M
12:55 am PDT N 0.0 6.00 Fog/Mist -- 52.0 50.0 94% NA NA 30.19 M
11:15 pm PDT S 4.6 10.00 Overcast -- 52.0 50.0 94% 51 NA 30.19 M
10:55 pm PDT N 0.0 10.00 Overcast -- 52.0 50.0 94% NA NA 30.19 M
10:35 pm PDT N 0.0 10.00 Overcast -- 52.0 50.0 94% NA NA 30.19 M
9:55 pm PDT SE 4.6 10.00 Overcast -- 52.0 48.2 88% 51 NA 30.18 M
8:55 pm PDT S 4.6 10.00 Overcast -- 48.0 48.2 100% 46 NA 30.17 M
8:35 pm PDT N 0.0 10.00 Mostly Cloudy -- 48.0 46.4 94% NA NA 30.18 M
7:55 pm PDT S 3.5 10.00 Fair -- 48.0 46.4 94% NA NA 30.17 M
6:55 pm PDT SE 3.5 10.00 Fair -- 50.0 48.2 94% NA NA 30.17 M
6:35 pm PDT S 3.5 10.00 Fair -- 50.0 46.4 88% NA NA 30.17 M

Regional Weather Observation


Eastsound, Orcas Island Airport, WA (KORS)

Overcast
57.0 F

Burlington/Mount Vernon, Skagit Regional Airport, WA (KBVS)

Overcast
63.0 F

Whidbey Island Naval Air Station - Ault Field, WA (KNUW)

Overcast
59.0 F

Arlington Municipal Airport, WA (KAWO)

Fair
59.0 F

Friday Harbor Airport, WA (KFHR)

Overcast
56.0 F

Port Angeles Fairchild International Airport, WA (KCLM)

Overcast
59.0 F